User: anonymous   Login
Location: Knowlton
(51.2333°N, 1.2667°E)
Time: 01:07:00
(UTC+00:00)
Language:

USA 229 DEB - Orbit

View from above orbital plane
View from above orbital plane
View from above satellite
View from above satellite

Ground track
Ground track

The orbit data is extracted from the following two-line orbital elements,

1 37391U 11014B   21168.99369542 0.00000000  00000-0  00000-0 0    08
2 37391  63.4390 255.2846 0199988 357.6791   2.3209 13.40823120    04
Epoch (UTC): 17 June 2021 23:50:55
Eccentricity: 0.0199988
inclination: 63.4390°
perigee height: 956 km
apogee height: 1256 km
right ascension of ascending node: 255.2846°
argument of perigee: 357.6791°
revolutions per day: 13.40823120
mean anomaly at epoch: 2.3209°
orbit number at epoch: 0

The dashed part of the orbit path shows where the satellite is in the earth's shadow,  

DLR